Погода в Пашково

Россия / Еврейская автономная область     48°53′16″N   130°39′06″E
темп.,
°C
ветер,
м/с
пор.,
м/с
влажн.,
%
обл.,
%
осадки,
мм/ч
давл.,
гПа
погр.,
м
21 января, пт
пт2101:00−32в11100100 0.0 10379
04:00−33в00100100 0.1 10399
07:00−33вюв1110099 0.0 10399
10:00−31ююз0010095 0.0 103930
13:00−23з129397 0.0 1038250
16:00−20з239295 0.0 1035334
19:00−29ююв0010073 0.0 10369
22:00−31в1110089 0.0 10369
22 января, сб
сб2201:00−32в1110089 0.0 10369
04:00−33в1110093 0.0 10369
07:00−34вюв0010095 0.0 10369
10:00−32ююз0010091 0.0 103627
13:00−24зюз129284 0.0 1035218
16:00−21зюз229074 0.0 1034270
19:00−29ююв1110057 0.0 10349
22:00−31в1110087 0.0 10349
23 января, вс
вс2301:00−32в1110077 0.0 10349
04:00−33в0010092 0.0 10349
07:00−33вюв00100100 0.0 10349
10:00−31зюз0010099 0.0 103433
13:00−24з2396100 0.0 1033273
16:00−20з3594100 0.1 1031381
19:00−28юз1110067 0.0 10329
22:00−30в1110098 0.0 10329
24 января, пн
пн2401:00−30в11100100 0.0 10329
04:00−31в11100100 0.1 10329
07:00−30в11100100 0.0 10319
10:00−26юз00100100 0.1 103032
13:00−19з1395100 0.1 1029266
16:00−17з239195 0.1 1027337
19:00−25ю1110076 0.0 10289
22:00−28в1110094 0.0 10289
25 января, вт
вт2501:00−28в11100100 0.0 10289
04:00−29в00100100 0.1 10289
07:00−30вюв00100100 0.0 10289
10:00−29ю00100100 0.1 102931
13:00−23зюз1296100 0.0 1028238
16:00−20з2293100 0.1 1027294
19:00−28ю0010073 0.0 10289
22:00−30в11100100 0.0 10299